Wind_Speed
23 24 25 26 26 27 27 28 28 28 29 30 31 32 32 33 32 32 32 31 32 33 32 32 34 34 32 33 32 32 32 31 30 31 31 29 29 29 29 28 28 28 27
23 23 24 25 26 26 27 28 29 28 29 30 31 33 33 34 34 33 33 32 32 32 32 32 33 34 33 33 33 33 33 33 33 32 32 32 31 31 31 31 30 30 29
22 23 24 25 25 26 27 27 28 27 28 29 30 31 31 32 32 33 33 32 32 32 33 32 33 35 35 34 34 34 33 34 34 33 33 33 34 33 33 33 32 32 31
21 21 22 23 24 25 26 26 26 27 28 28 29 30 30 31 32 32 32 32 31 31 32 32 33 34 35 35 35 34 35 34 34 34 33 33 34 34 35 34 33 34 33
20 20 21 22 22 23 24 24 25 26 27 27 27 28 29 30 31 31 31 31 31 31 32 32 33 34 35 35 34 34 34 33 33 34 33 33 34 35 34 34 34 34 34
19 19 19 20 20 21 22 23 24 24 25 25 26 27 27 28 29 30 30 30 31 31 32 32 32 33 33 33 32 33 33 33 32 33 34 34 34 33 34 34 34 35 35
17 18 19 19 19 19 20 21 22 22 23 23 24 25 25 25 26 27 27 28 29 31 31 32 32 33 32 32 31 32 33 33 32 32 33 34 33 33 34 34 34 34 35
17 17 16 17 17 18 19 20 21 21 22 22 22 23 24 24 23 24 25 26 27 28 29 31 31 32 32 31 30 30 31 31 32 32 33 34 34 35 34 34 35 36 36
16 15 15 16 17 17 18 19 20 20 20 21 21 22 22 23 22 22 23 24 25 27 28 29 30 31 31 32 31 30 30 31 31 31 33 33 34 35 34 34 35 35 36
16 16 16 16 17 18 18 19 19 19 18 19 20 20 21 22 22 22 23 24 24 25 26 27 28 29 30 31 30 29 28 29 29 30 31 32 33 33 33 34 35 36 36
17 17 17 17 17 18 19 19 19 19 19 20 20 21 21 21 22 22 23 24 24 25 25 26 26 27 28 28 28 28 28 28 28 28 28 29 30 30 31 32 33 33 33
18 18 18 18 18 18 19 20 20 21 21 21 21 21 21 22 22 22 22 22 23 24 25 25 25 26 27 27 27 27 27 28 27 27 27 27 28 29 30 30 31 31 31
20 20 20 20 20 21 21 22 22 22 22 22 22 22 22 22 22 22 22 22 23 23 23 24 24 25 25 25 25 25 26 27 26 26 26 26 27 26 27 28 28 28 28
21 22 22 22 23 23 23 23 23 23 23 23 23 23 23 23 23 23 23 23 23 23 23 23 23 23 24 23 24 24 24 24 24 24 24 24 25 25 25 26 26 26 26
23 23 23 23 24 24 24 24 24 24 24 24 23 23 23 24 23 23 24 24 24 23 23 23 23 23 22 22 22 23 23 23 23 23 23 23 24 25 25 25 25 25 25
24 25 25 25 25 25 25 24 24 25 25 25 24 23 23 24 24 24 24 23 23 23 23 23 23 23 23 23 22 22 22 22 22 23 23 23 23 22 23 23 24 24 23
26 27 27 26 26 25 25 24 24 24 24 24 24 24 23 23 23 23 22 22 22 22 22 23 23 22 22 22 22 22 21 21 21 21 21 20 21 21 20 21 21 21 22
26 26 26 25 25 24 23 23 23 22 22 22 23 23 22 22 21 21 21 21 20 20 21 20 19 19 19 19 18 18 18 18 18 18 18 18 18 18 18 19 20 20 20
26 25 25 24 23 22 22 21 21 20 20 20 20 20 20 19 19 19 19 19 18 17 17 16 15 16 15 15 15 15 15 14 15 16 16 17 17 17 18 18 18 19 19
24 24 24 22 21 21 20 19 19 19 18 17 16 16 16 16 16 16 16 16 16 15 15 15 14 13 12 13 13 13 13 13 14 14 15 15 16 17 17 17 18 18 19
22 22 21 20 19 19 18 17 17 15 14 14 14 13 12 12 12 12 13 13 13 13 12 12 11 11 11 11 11 11 12 12 13 14 14 15 16 16 16 17 17 18 19
20 19 18 18 17 17 16 14 13 11 10 10 10 9 10 10 10 9 10 10 11 11 10 11 10 10 10 10 10 10 10 10 11 12 13 13 14 15 15 16 16 17 17
18 17 17 16 15 14 13 10 9 8 7 7 7 7 8 8 8 8 8 9 9 10 9 8 8 8 8 7 8 8 8 9 9 10 11 12 13 14 14 15 15 15 15
16 15 14 13 12 11 9 7 6 5 4 4 5 6 6 6 6 6 7 8 7 7 7 7 7 7 7 6 6 6 6 7 8 9 10 11 12 12 12 13 13 12 12
14 13 12 11 9 7 6 4 3 2 3 3 4 4 5 7 6 6 6 6 6 6 6 6 5 5 5 5 5 6 5 6 7 8 9 9 10 10 10 10 10 10 9
12 10 9 7 6 4 2 1 0 1 2 3 3 3 5 6 6 6 6 6 5 5 4 5 5 4 4 4 4 4 4 5 5 6 7 7 7 7 7 7 6 7 7
Wind_Direction
267 267 266 264 263 262 263 264 263 263 263 262 259 259 257 256 256 256 255 256 257 256 255 254 251 248 248 248 248 249 249 250 249 249 248 247 248 250 252 253 252 252 254
268 269 267 265 263 262 263 265 265 264 262 261 259 259 258 257 258 258 257 258 257 255 255 253 250 248 248 248 249 250 249 250 250 250 247 246 248 251 253 253 254 254 254
269 270 269 267 265 264 263 264 263 262 261 260 259 258 257 258 256 256 257 256 255 255 255 253 250 249 249 249 249 248 249 249 249 248 250 249 250 251 253 254 255 255 255
272 275 274 269 266 266 265 264 264 263 261 259 258 257 257 258 257 257 255 255 254 254 253 253 251 249 249 250 251 250 248 248 248 249 251 251 251 250 252 253 256 257 256
277 280 278 272 268 266 266 265 264 264 263 260 258 258 258 258 257 256 256 254 254 252 251 251 251 251 250 250 249 249 249 249 249 251 251 252 251 250 252 254 255 256 256
281 281 281 277 271 269 267 265 265 264 264 261 260 259 259 258 257 256 256 254 252 250 251 252 254 252 251 249 248 249 249 248 249 248 248 251 251 252 253 255 256 257 256
287 285 283 281 275 273 270 270 268 266 264 262 260 260 260 259 257 257 256 255 254 250 249 250 251 251 251 251 250 249 249 248 247 246 247 248 248 250 251 253 255 255 255
295 292 288 286 282 279 276 275 272 268 267 266 263 262 261 259 259 257 255 255 255 252 250 250 250 250 251 251 250 250 249 249 246 245 245 247 248 248 248 251 252 254 255
298 296 292 289 287 284 281 279 274 272 271 269 266 266 265 263 260 259 256 255 254 253 253 252 250 249 250 249 249 249 249 248 246 246 246 247 248 247 248 249 251 254 255
301 299 297 293 289 286 285 282 278 276 274 271 268 267 266 266 263 260 259 259 257 256 254 252 250 249 250 250 249 248 248 248 247 246 246 245 247 248 250 250 252 254 256
301 300 300 298 294 290 286 283 280 278 276 274 271 270 269 268 266 261 259 258 257 256 253 251 250 250 250 250 247 248 250 250 249 248 248 246 247 246 249 251 251 253 256
303 302 301 299 296 293 291 287 283 281 279 276 275 273 270 269 268 262 259 258 258 257 255 252 251 250 250 249 248 248 250 250 248 247 247 247 248 249 251 252 252 253 254
302 302 301 300 298 295 293 290 286 283 281 280 277 274 272 270 268 263 261 260 258 257 255 252 251 251 250 250 247 247 247 246 245 246 247 248 248 251 252 253 254 256 258
300 300 299 298 297 295 293 291 288 285 283 281 279 276 273 272 268 264 262 262 259 257 256 254 252 251 250 247 246 245 244 244 245 246 248 249 250 254 255 254 256 259 262
300 300 300 299 296 294 293 291 287 284 283 281 279 277 274 271 269 267 265 263 260 258 257 255 255 254 252 247 246 245 243 243 244 246 248 251 253 254 254 257 259 261 265
302 302 301 299 297 294 292 289 286 283 281 278 276 276 274 270 269 268 266 264 263 261 257 254 254 254 253 250 248 247 246 246 247 247 248 249 251 251 254 257 261 264 268
302 302 301 299 297 294 292 289 286 282 279 277 274 275 274 270 267 266 264 262 262 260 257 255 255 253 253 250 247 247 245 246 248 247 247 250 253 256 259 262 263 266 269
301 300 299 297 296 294 292 289 286 282 279 276 274 274 272 267 264 263 260 259 258 259 256 257 253 247 245 243 240 242 244 245 246 248 248 250 254 257 261 264 267 270 273
301 300 299 298 298 296 292 287 286 283 282 279 274 271 266 261 259 258 256 258 257 255 254 251 244 239 238 240 240 241 242 245 248 248 249 251 256 260 263 266 269 271 275
302 302 303 301 299 297 293 290 287 285 282 277 272 266 262 259 257 255 252 252 250 250 248 244 240 239 239 239 243 244 242 246 249 251 253 255 259 262 263 267 270 274 279
305 305 304 301 299 298 296 292 290 285 280 272 266 260 256 252 250 249 243 241 239 240 239 238 236 237 237 240 244 245 243 247 253 257 260 261 263 264 265 270 275 280 284
309 308 306 303 301 300 298 294 291 284 278 266 259 252 246 245 242 242 236 230 230 230 232 233 236 236 236 240 242 246 245 250 258 262 263 267 271 274 274 277 279 282 284
313 310 307 305 303 303 301 295 290 286 278 261 251 242 236 230 226 225 224 222 222 222 226 229 232 229 230 238 244 250 254 260 267 267 268 274 278 280 281 281 282 283 284
316 314 312 310 306 304 301 294 287 282 269 249 232 227 218 214 215 214 213 216 217 211 214 219 222 225 227 233 237 242 258 270 274 276 279 281 282 284 284 284 286 289 292
323 320 316 314 313 312 306 297 285 276 244 216 198 202 207 205 199 195 192 193 197 197 199 198 200 208 220 229 241 252 263 276 280 283 285 284 284 284 286 288 290 292 294
333 333 332 333 331 330 332 327 210 173 164 169 172 169 165 166 168 172 173 171 173 171 172 181 188 199 210 222 240 258 268 277 283 288 288 286 287 288 290 291 294 298 302
Height
5830 5830 5829 5829 5829 5829 5829 5829 5829 5829 5829 5829 5829 5829 5830 5831 5832 5833 5833 5834 5835 5836 5837 5838 5839 5842 5844 5846 5847 5849 5850 5852 5854 5855 5857 5859 5861 5862 5864 5864 5865 5866 5867
5825 5824 5823 5822 5822 5822 5822 5822 5821 5821 5821 5821 5822 5822 5822 5823 5824 5825 5825 5826 5827 5828 5828 5830 5831 5834 5836 5838 5840 5842 5843 5845 5847 5848 5850 5852 5855 5856 5857 5858 5860 5861 5861
5819 5818 5817 5816 5815 5815 5815 5814 5814 5814 5813 5814 5814 5814 5815 5815 5816 5817 5818 5818 5819 5820 5821 5823 5824 5827 5829 5831 5832 5834 5836 5837 5839 5841 5843 5845 5847 5849 5850 5851 5853 5854 5855
5813 5812 5811 5809 5808 5808 5808 5808 5807 5807 5807 5807 5807 5807 5808 5808 5809 5809 5810 5811 5812 5813 5815 5816 5818 5819 5821 5823 5824 5826 5828 5830 5832 5834 5836 5838 5840 5841 5843 5844 5845 5847 5848
5808 5806 5804 5803 5802 5802 5801 5801 5800 5800 5800 5800 5800 5800 5800 5801 5801 5802 5802 5803 5804 5805 5807 5808 5810 5811 5813 5815 5816 5818 5820 5822 5824 5826 5828 5829 5831 5833 5835 5837 5838 5839 5840
5802 5800 5799 5797 5796 5796 5795 5795 5794 5794 5793 5793 5793 5793 5793 5793 5794 5794 5795 5795 5797 5798 5799 5801 5802 5804 5806 5807 5809 5811 5812 5814 5816 5818 5820 5822 5823 5826 5828 5829 5830 5831 5832
5797 5795 5793 5792 5791 5790 5790 5789 5789 5788 5787 5787 5787 5786 5786 5787 5787 5787 5788 5788 5789 5791 5792 5793 5795 5797 5798 5800 5802 5803 5805 5807 5808 5810 5813 5814 5816 5818 5820 5821 5822 5823 5824
5792 5790 5789 5787 5786 5785 5785 5784 5783 5782 5782 5781 5781 5781 5780 5780 5781 5781 5781 5782 5783 5784 5785 5786 5788 5790 5791 5793 5795 5797 5798 5800 5802 5803 5805 5807 5808 5810 5811 5813 5814 5815 5816
5788 5786 5785 5783 5782 5781 5780 5779 5778 5777 5776 5776 5775 5775 5775 5775 5775 5775 5775 5775 5776 5777 5778 5780 5781 5783 5785 5786 5788 5790 5792 5793 5795 5796 5798 5799 5801 5802 5804 5805 5807 5808 5808
5785 5783 5781 5779 5778 5776 5775 5773 5772 5772 5771 5771 5770 5769 5769 5769 5769 5769 5769 5770 5770 5771 5772 5773 5775 5776 5778 5780 5781 5783 5785 5786 5788 5789 5791 5792 5794 5795 5796 5797 5798 5800 5801
5780 5778 5776 5775 5773 5771 5770 5768 5767 5766 5766 5765 5765 5764 5764 5763 5763 5763 5763 5764 5764 5765 5766 5767 5768 5770 5772 5773 5775 5777 5778 5780 5781 5782 5783 5785 5786 5787 5788 5789 5790 5791 5793
5776 5774 5772 5770 5768 5766 5765 5763 5762 5761 5760 5760 5759 5758 5758 5758 5758 5758 5758 5758 5759 5759 5760 5761 5762 5764 5765 5767 5768 5770 5772 5773 5774 5776 5777 5778 5779 5780 5782 5783 5783 5784 5784
5771 5769 5767 5765 5763 5761 5759 5758 5756 5755 5754 5754 5753 5752 5752 5752 5752 5752 5752 5753 5753 5753 5754 5755 5756 5758 5759 5760 5761 5763 5765 5767 5768 5769 5771 5772 5773 5774 5775 5776 5777 5777 5777
5766 5764 5761 5759 5757 5755 5753 5752 5750 5749 5748 5747 5747 5746 5746 5746 5746 5746 5747 5747 5747 5747 5748 5749 5750 5752 5753 5754 5756 5757 5759 5761 5762 5764 5765 5766 5767 5768 5769 5770 5770 5771 5771
5760 5758 5755 5753 5751 5749 5747 5745 5743 5742 5741 5741 5740 5740 5740 5739 5740 5740 5741 5741 5741 5742 5742 5743 5745 5746 5747 5748 5750 5751 5753 5755 5757 5758 5759 5761 5762 5763 5764 5764 5765 5765 5765
5754 5751 5749 5746 5744 5742 5740 5738 5737 5736 5735 5734 5734 5733 5733 5733 5733 5734 5734 5735 5735 5736 5737 5738 5739 5740 5742 5743 5745 5746 5748 5749 5751 5752 5754 5755 5756 5757 5758 5759 5759 5759 5759
5748 5745 5742 5739 5737 5735 5733 5731 5730 5729 5728 5727 5726 5726 5726 5726 5726 5727 5727 5728 5729 5730 5731 5732 5733 5734 5736 5737 5739 5741 5742 5744 5745 5747 5748 5749 5750 5751 5752 5753 5753 5754 5753
5741 5738 5735 5732 5730 5728 5726 5724 5723 5722 5721 5720 5720 5719 5719 5720 5720 5721 5721 5722 5723 5724 5725 5726 5727 5729 5731 5732 5734 5736 5737 5738 5740 5742 5743 5744 5745 5746 5747 5747 5748 5748 5748
5734 5731 5728 5725 5723 5721 5719 5717 5716 5715 5714 5713 5713 5713 5713 5713 5714 5715 5716 5717 5718 5719 5721 5722 5723 5724 5726 5728 5730 5731 5733 5734 5736 5737 5738 5739 5740 5741 5742 5743 5743 5743 5743
5727 5724 5721 5719 5716 5715 5713 5711 5710 5709 5708 5708 5707 5707 5708 5708 5709 5710 5711 5713 5714 5715 5717 5718 5719 5720 5722 5724 5726 5727 5729 5730 5732 5733 5734 5735 5736 5737 5737 5738 5738 5738 5737
5721 5718 5715 5713 5711 5709 5707 5706 5705 5704 5703 5702 5702 5703 5703 5704 5705 5706 5707 5709 5710 5712 5713 5714 5716 5717 5719 5721 5722 5724 5725 5727 5728 5729 5730 5731 5732 5732 5732 5732 5733 5732 5732
5715 5712 5710 5708 5705 5704 5702 5701 5700 5699 5698 5698 5698 5699 5700 5701 5702 5703 5704 5706 5707 5709 5710 5712 5713 5715 5716 5718 5719 5721 5722 5723 5725 5726 5726 5727 5727 5728 5728 5728 5728 5727 5727
5711 5708 5705 5703 5701 5700 5698 5697 5697 5696 5696 5696 5696 5697 5698 5699 5700 5701 5702 5704 5705 5707 5708 5709 5711 5712 5714 5715 5717 5718 5719 5720 5722 5722 5723 5723 5723 5723 5724 5723 5723 5723 5722
5706 5704 5701 5699 5698 5696 5695 5694 5694 5694 5694 5694 5694 5695 5696 5697 5698 5700 5701 5702 5704 5705 5706 5707 5709 5710 5712 5713 5715 5716 5717 5718 5719 5719 5720 5720 5720 5720 5720 5719 5719 5718 5718
5703 5700 5698 5696 5695 5693 5693 5692 5692 5692 5692 5693 5693 5694 5695 5696 5698 5699 5700 5701 5703 5704 5705 5706 5707 5709 5711 5712 5713 5714 5716 5716 5716 5717 5717 5717 5717 5717 5716 5716 5716 5715 5715
5701 5698 5696 5694 5693 5692 5692 5691 5691 5692 5692 5692 5693 5694 5695 5696 5697 5699 5700 5701 5702 5704 5705 5706 5707 5708 5710 5711 5712 5713 5714 5714 5714 5715 5714 5714 5714 5714 5714 5714 5713 5713 5712